Weather in Lyubilki

Russia / Yaroslavl Oblast     56°57′59″N   39°12′22″E
temp.,
°C
wind,
m/s
gust,
m/s
humid.,
%
clouds,
%
prec.,
mm/h
press.,
hPa
HPBL,
m
23 april, fri
fri2300:00+6s4129014 0.4 1015242
03:00+6sse411925 0.4 1015246
06:00+6s5129256 0.0 1014323
09:00+11s6127339 0.0 1014659
12:00+15s8125410 0.2 10141884
15:00+16s8124673 0.4 10122638
18:00+13s7125782 0.7 1012986
21:00+8wnw3589100 1.5 1013219
24 april, sat
sat2400:00+7ene2392100 0.1 1011147
03:00+8se5138566 0.3 1008530
06:00+7sse51289100 0.3 1006587
09:00+7s41091100 0.8 10051000
12:00+2wsw4797100 3.5 1007330
15:00+3w3696100 4.5 1007505
18:00+4w3597100 0.4 1007605
21:00+3wnw3697100 2.3 1007637
25 april, sun
sun2500:00+3wnw41089100 1.1 1006560
03:00+2wnw51287100 1.1 1005570
06:00+1w51184100 0.0 1006521
09:00+3w71177100 0.0 10061055
12:00+6w81154100 0.1 10062006
15:00+7w71050100 0.2 10072012
18:00+5w51061100 0.2 10081458
21:00+2wsw4117727 0.2 1009398
26 april, mon
mon2600:00+1wsw411815 0.0 1010325
03:00−1sw410895 0.0 1010250
06:000sw410835 0.0 1011306
09:00+5wsw58595 0.0 10111088
12:00+8wsw6845100 0.1 10102380
15:00+8wsw5742100 0.1 10102037
18:00+7sw575569 0.1 1010712
21:00+3ssw347551 0.1 101048
27 april, tue
tue2700:00+1sw227857 0.0 100931
03:000wsw228551 0.0 100931
06:00+1wsw2583100 0.0 1009140
09:00+6wsw445941 0.0 1009706
12:00+8wsw5645100 0.4 10092120
15:00+9w464293 0.4 10092047
18:00+7wsw465943 0.8 1009723
21:00+3wsw37765 0.8 1011115